SP9MLI-1 Weather Reports


time (UTC)temp
C
wind
direction
speed
KPH
gust
KPH
rain 1hr
cm
rain 24hr
cm
rain mn
cm
humidity
%
barometer
mb
20260504080813 18 181 0.0 0.0 0.00 0.00 0.00 70 1010.9
20260504045313 17 181 0.0 0.0 0.00 0.00 0.00 62 1009.9
20260504043813 11 189 0.0 0.0 0.00 0.00 0.00 70 1008.6
20260504042313 11 189 0.0 0.0 0.00 0.00 0.00 70 1008.6
20260504040814 11 189 0.0 0.0 0.00 0.00 0.00 70 1008.6
20260504035313 11 189 0.0 0.0 0.00 0.00 0.00 70 1008.6
20260504033813 10 196 0.0 0.0 0.00 0.00 0.00 74 1008.6
20260504032314 10 163 0.0 0.0 0.00 0.00 0.00 86 1008.2
20260504030814 10 184 0.0 0.0 0.00 0.00 0.00 87 1008.6
20260504025313 10 168 0.0 0.0 0.00 0.00 0.00 88 1008.6
20260504023813 10 194 0.0 0.0 0.00 0.00 0.00 87 1008.2
20260504022313 9 199 0.0 0.0 0.00 0.00 0.00 87 1008.6
20260504020814 9 222 0.0 0.0 0.00 0.00 0.00 91 1008.2
20260504015313 9 203 0.0 0.0 0.00 0.00 0.00 92 1008.6
20260504013813 9 189 0.0 0.0 0.00 0.00 0.00 93 1008.6
20260504012313 9 172 0.0 0.0 0.00 0.00 0.00 92 1008.6
20260504010813 10 172 0.0 0.0 0.00 0.00 0.00 91 1008.9
20260504005313 10 181 0.0 0.0 0.00 0.00 0.00 88 1009.9
20260504003815 10 181 0.0 0.0 0.00 0.00 0.00 88 1009.9
20260504002315 10 181 0.0 0.0 0.00 0.00 0.00 88 1009.9
20260504000814 10 181 0.0 0.0 0.00 0.00 0.00 88 1009.9
20260503235314 11 181 0.0 0.0 0.00 0.00 0.00 88 1009.9
20260503232314 13 162 0.0 0.0 0.00 0.00 0.00 82 1010.9
20260503230815 13 162 0.0 0.0 0.00 0.00 0.00 82 1010.9
20260503225314 13 162 0.0 0.0 0.00 0.00 0.00 82 1010.9
20260503223814 13 162 0.0 0.0 0.00 0.00 0.00 82 1010.9
20260503222314 13 190 0.0 0.0 0.00 0.00 0.00 80 1011.3
20260503220814 13 168 0.0 0.0 0.00 0.00 0.00 81 1011.3
20260503215314 13 173 0.0 0.0 0.00 0.00 0.00 80 1011.6
20260503213814 13 173 0.0 0.0 0.00 0.00 0.00 80 1011.6
20260503212314 13 172 0.0 0.0 0.00 0.00 0.00 79 1012.0
20260503210814 13 173 0.0 0.0 0.00 0.00 0.00 77 1012.0
20260503205314 13 173 0.0 0.0 0.00 0.00 0.00 78 1012.3
20260503203814 13 176 0.0 0.0 0.00 0.00 0.00 78 1012.0
20260503202316 13 176 0.0 0.0 0.00 0.00 0.00 77 1012.0
20260503200815 13 174 0.0 0.0 0.00 0.00 0.00 76 1012.0
20260503195409 14 175 0.0 0.0 0.00 0.00 0.00 75 1012.0
20260503195315 14 175 0.0 0.0 0.00 0.00 0.00 75 1012.0
20260503193815 15 175 0.0 0.0 0.00 0.00 0.00 74 1012.3
20260503192315 15 175 0.0 0.0 0.00 0.00 0.00 73 1012.3
20260503190815 16 175 0.0 0.0 0.00 0.00 0.00 72 1012.3
20260503185315 17 175 0.0 0.0 0.00 0.00 0.00 70 1012.3
20260503183818 17 175 0.0 0.0 0.00 0.00 0.00 67 1012.6
20260503182321 22 173 0.0 0.0 0.00 0.00 0.00 53 1013.0
20260503180817 22 173 0.0 0.0 0.00 0.00 0.00 53 1013.0
20260503175314 22 173 0.0 0.0 0.00 0.00 0.00 53 1013.0
20260503173815 22 173 0.0 0.0 0.00 0.00 0.00 53 1013.0
20260503172315 22 173 0.0 0.0 0.00 0.00 0.00 51 1013.0
20260503170814 23 170 0.0 0.0 0.00 0.00 0.00 50 1013.0
20260503150814 30 235 0.0 4.8 0.00 0.00 0.00 30 1013.7
20260503130814 29 221 0.0 0.0 0.00 0.00 0.00 32 1015.4